Wind_Speed
12 14 15 14 12 10 11 14 17 18 19 18 16 13 12 11 9 8 7 6 5 4 3 3 4 7 10 12 11 10 9 8 7 11 12 13 13 14 16 16 16 15 13
9 11 13 14 12 10 10 12 14 16 18 18 17 14 12 11 9 8 7 7 6 4 4 3 3 5 9 12 13 12 10 9 8 9 10 10 11 12 14 16 17 16 15
6 9 11 13 12 11 10 11 12 14 16 18 18 16 13 11 10 8 8 8 6 5 4 4 4 3 7 11 14 12 11 9 8 8 7 6 5 6 9 13 16 17 16
2 5 8 11 12 11 10 9 11 13 15 16 17 16 15 13 11 10 9 9 9 7 6 5 4 3 4 9 13 13 12 10 9 8 6 4 3 3 4 6 10 13 15
1 2 5 8 10 10 9 8 9 11 13 14 16 16 15 14 13 11 10 10 10 9 7 5 5 4 1 7 11 13 13 12 10 8 6 4 2 4 4 4 5 9 12
3 2 2 4 7 9 8 7 7 8 10 12 14 16 16 15 14 13 12 10 10 9 8 5 5 5 2 4 9 12 13 13 11 8 7 5 4 4 4 4 5 6 9
4 4 3 2 5 7 7 6 6 6 8 10 12 15 16 16 16 15 13 10 9 8 7 5 4 4 3 2 7 10 12 12 11 9 8 7 6 6 6 6 7 6 7
5 5 4 2 3 5 6 5 4 4 6 8 10 12 15 16 16 16 15 12 10 8 7 5 3 2 2 1 5 7 10 10 10 9 9 8 8 7 7 7 8 6 6
5 6 6 4 2 2 4 5 4 4 4 7 8 10 12 14 15 15 16 15 12 9 7 5 2 1 0 1 4 5 7 7 6 7 7 8 8 7 7 8 8 6 5
6 7 8 7 5 3 2 3 4 4 5 6 7 8 9 11 12 13 15 15 13 11 8 6 3 2 3 4 5 6 7 6 5 6 6 6 7 5 3 4 5 4 4
7 8 10 10 9 7 5 4 4 5 6 6 7 7 7 8 9 11 12 13 13 11 10 8 6 5 6 7 7 7 7 8 7 6 6 6 6 5 3 2 2 3 5
8 9 10 11 11 10 9 7 7 7 7 7 8 8 7 7 8 9 10 11 11 11 11 10 8 7 7 9 9 10 10 10 10 9 8 8 8 8 6 5 5 5 6
8 9 10 12 12 12 11 10 9 10 10 10 10 9 8 8 7 8 9 10 10 10 11 11 10 7 8 10 11 12 12 11 11 11 11 11 11 11 11 10 9 8 8
9 9 10 11 12 13 13 12 11 11 12 13 12 12 12 10 8 7 9 9 9 8 9 10 10 9 8 10 12 14 14 14 14 15 15 15 15 15 15 15 14 12 11
11 10 10 11 12 13 14 14 13 14 15 15 14 14 14 12 10 8 9 10 10 10 9 8 9 9 8 9 12 15 17 19 19 20 20 19 19 20 20 19 19 18 17
14 13 12 13 14 16 16 16 16 16 17 16 16 15 14 14 12 12 12 13 12 13 13 11 9 8 7 8 11 14 18 21 23 23 23 23 23 23 23 22 21 21 21
16 15 15 15 17 18 19 18 17 17 16 16 15 15 15 15 15 15 15 15 14 15 16 17 15 11 9 9 10 13 17 20 22 23 24 24 24 24 23 23 21 20 20
19 18 17 17 18 19 20 19 17 16 16 15 15 15 15 16 18 18 17 17 16 17 18 20 20 17 15 13 13 14 17 20 22 23 23 23 23 23 23 23 22 21 20
22 21 20 20 21 21 21 20 18 16 16 16 15 15 16 17 19 20 20 19 19 19 20 21 21 21 20 18 17 18 19 21 22 22 23 23 24 24 24 24 24 22 21
25 25 24 23 24 24 24 23 21 18 17 18 17 17 18 19 20 21 21 21 22 22 23 23 23 24 24 22 21 21 22 23 23 22 23 23 24 24 24 25 24 22 21
26 27 27 26 26 26 25 25 23 21 20 21 21 21 20 21 21 21 22 23 24 25 25 26 25 26 26 26 24 24 23 24 24 23 22 23 24 24 24 24 23 22 22
27 28 30 29 29 29 29 27 26 25 24 23 22 22 22 21 21 21 22 24 26 27 28 28 27 27 27 27 27 27 26 25 24 23 23 23 24 24 24 24 23 22 22
29 30 32 33 34 34 33 32 31 29 27 25 23 22 22 22 21 22 24 25 27 28 28 28 27 27 27 28 28 28 28 28 25 25 25 24 24 24 24 24 23 22 22
34 35 36 36 37 39 39 36 33 29 27 25 24 23 23 24 24 25 25 26 27 27 26 26 26 26 27 27 27 27 28 28 28 26 26 26 25 24 24 24 24 23 22
38 38 39 38 40 41 39 36 33 31 28 26 24 24 25 26 25 25 25 26 25 25 24 24 25 26 27 27 28 28 28 28 27 27 26 26 25 24 24 24 25 24 23
40 41 41 40 44 44 40 37 34 31 28 25 23 23 24 24 24 25 25 25 24 23 24 25 26 27 27 27 27 28 29 30 28 27 26 25 25 25 24 24 25 25 24
Wind_Direction
49 47 46 44 49 58 59 59 58 54 50 46 44 43 44 45 54 57 47 37 27 10 350 315 268 240 225 219 214 218 224 228 227 230 230 237 242 243 242 241 240 242 247
46 43 40 40 45 57 60 55 54 51 48 45 43 43 43 43 46 47 40 33 26 17 5 351 315 256 232 222 216 217 223 231 239 235 227 232 233 236 238 240 240 241 243
51 41 35 35 41 51 57 52 49 47 43 40 40 41 43 41 39 36 33 33 28 19 14 6 342 285 236 220 215 212 215 220 230 236 221 207 211 222 232 240 238 237 238
69 45 33 32 38 46 49 47 45 43 38 35 35 38 42 40 37 32 29 30 28 22 15 10 0 328 235 216 213 211 212 216 223 225 205 186 203 239 253 244 230 229 231
191 51 31 31 37 44 45 42 37 36 33 30 31 35 38 37 34 32 30 27 26 25 20 13 11 8 273 214 213 214 214 217 219 219 204 198 241 269 268 248 234 225 222
227 240 358 26 36 39 40 41 35 31 28 28 31 35 36 34 31 30 29 27 25 25 25 18 14 19 32 202 211 217 219 220 223 221 214 220 247 275 273 248 239 237 231
239 244 275 358 35 33 32 37 36 31 26 26 30 35 36 33 31 29 29 28 26 26 29 28 19 24 34 179 205 218 223 226 228 227 226 230 248 270 263 243 238 241 241
252 243 253 295 21 28 25 28 29 26 22 24 27 32 36 36 36 34 32 32 32 26 26 28 25 22 26 183 205 212 217 223 230 229 237 243 252 264 252 237 232 238 246
270 240 237 249 281 2 16 21 16 5 6 14 20 25 32 36 35 33 31 32 34 29 21 18 12 333 230 208 201 199 203 214 231 250 256 252 255 257 250 240 232 231 242
288 252 236 237 246 263 314 4 4 353 345 353 7 16 23 31 34 32 30 29 31 28 17 2 339 254 224 216 208 208 212 219 234 249 245 240 242 245 241 239 239 236 254
300 271 249 243 246 251 254 276 317 334 334 332 343 360 6 14 24 27 26 25 26 22 11 351 322 280 242 227 218 217 223 229 236 240 232 225 228 230 228 237 243 259 263
313 288 267 255 252 252 252 258 274 293 308 318 326 335 341 352 6 14 18 20 21 19 11 357 331 299 267 246 231 225 226 230 236 239 235 229 231 235 239 243 251 260 263
312 293 279 266 259 257 256 258 266 279 288 298 309 317 319 327 345 2 8 13 16 15 12 5 350 316 279 259 244 234 229 229 234 241 243 241 240 243 247 249 252 259 266
308 296 286 276 264 258 256 260 268 277 284 289 296 302 304 306 318 341 353 356 359 360 5 8 1 340 296 268 252 241 234 230 231 235 240 243 245 248 251 253 255 258 263
300 292 289 284 272 265 263 266 272 279 284 288 291 296 299 300 302 311 325 331 335 338 345 356 1 350 318 279 259 246 237 232 230 232 236 241 244 248 252 256 258 259 261
298 289 284 283 279 273 268 268 272 278 282 285 288 291 294 297 298 300 309 315 316 321 328 333 337 339 322 291 267 253 244 237 233 234 236 240 244 247 251 253 256 260 259
296 290 285 282 281 278 274 271 271 274 276 277 281 286 289 291 294 296 300 302 300 307 316 320 321 319 308 291 275 259 249 246 242 240 240 242 243 244 246 248 251 257 257
288 287 285 283 281 280 278 274 271 271 272 274 278 283 286 290 292 292 293 292 289 296 306 310 308 306 304 295 281 267 254 248 247 246 245 245 244 242 241 244 247 253 255
279 281 282 280 279 277 276 274 269 265 267 270 275 279 282 285 289 286 285 283 281 287 294 298 296 296 298 297 289 278 266 255 250 247 249 250 246 242 241 242 245 246 247
271 275 279 279 276 273 270 269 267 262 261 263 268 274 278 278 279 277 276 274 275 281 287 290 289 291 292 291 286 280 275 267 258 252 252 252 246 242 241 241 241 240 239
264 270 274 275 273 269 265 263 261 258 257 258 263 269 273 274 271 269 269 269 272 278 283 285 285 286 286 287 283 278 275 272 265 256 254 251 244 242 240 239 237 235 233
256 264 270 272 269 264 259 255 253 252 254 257 263 267 270 269 266 263 264 266 270 276 280 281 281 282 282 282 281 277 272 269 264 258 252 250 245 242 241 238 235 232 231
252 260 266 268 268 263 255 248 245 245 249 253 259 263 265 265 265 264 265 268 270 274 277 279 280 279 279 279 278 276 270 265 263 259 250 248 245 243 241 236 231 229 228
250 256 260 263 263 262 256 247 241 240 244 248 253 256 259 261 264 268 271 275 276 278 279 279 280 280 279 278 276 273 272 267 262 262 252 244 243 243 241 234 229 227 226
248 254 257 258 257 256 252 246 240 238 240 243 248 253 256 260 265 271 276 280 283 284 284 283 282 280 279 276 272 269 270 269 264 262 255 245 242 242 240 234 230 230 227
248 251 252 253 252 251 249 245 239 235 235 237 244 252 256 262 268 273 277 283 287 289 289 287 285 283 281 276 270 265 265 267 267 266 259 247 240 239 237 233 232 234 232
Height
5892 5891 5890 5890 5889 5889 5889 5889 5888 5887 5886 5885 5884 5884 5883 5883 5882 5882 5882 5882 5882 5882 5883 5883 5883 5884 5885 5887 5888 5890 5891 5893 5895 5896 5898 5900 5902 5904 5905 5907 5910 5911 5912
5892 5892 5891 5890 5890 5889 5890 5890 5889 5889 5888 5887 5886 5885 5884 5884 5883 5883 5883 5883 5882 5882 5882 5882 5881 5881 5883 5884 5886 5888 5890 5892 5894 5895 5897 5898 5900 5902 5903 5905 5907 5909 5910
5893 5892 5892 5891 5890 5890 5890 5891 5890 5890 5889 5888 5887 5886 5885 5884 5884 5884 5884 5883 5883 5882 5882 5881 5880 5880 5881 5882 5885 5887 5889 5891 5893 5894 5895 5897 5899 5900 5902 5903 5905 5906 5908
5893 5893 5893 5892 5892 5891 5891 5891 5891 5891 5890 5889 5888 5887 5886 5885 5884 5884 5883 5883 5883 5882 5882 5881 5880 5879 5879 5881 5883 5886 5888 5890 5891 5893 5894 5896 5898 5899 5900 5901 5902 5904 5906
5893 5894 5894 5893 5893 5892 5891 5891 5892 5891 5891 5890 5889 5887 5886 5885 5884 5884 5883 5883 5882 5882 5882 5881 5880 5879 5879 5880 5883 5885 5887 5889 5890 5892 5894 5895 5897 5898 5899 5900 5901 5902 5904
5893 5893 5894 5893 5893 5892 5892 5892 5892 5892 5892 5891 5890 5888 5887 5886 5885 5884 5883 5882 5882 5882 5881 5881 5881 5880 5879 5880 5882 5884 5886 5888 5889 5891 5893 5895 5896 5897 5898 5899 5900 5901 5902
5892 5893 5893 5893 5893 5893 5892 5892 5892 5892 5892 5892 5891 5889 5888 5887 5886 5884 5883 5882 5882 5881 5881 5881 5881 5880 5879 5880 5881 5883 5885 5887 5889 5891 5893 5894 5895 5896 5897 5899 5900 5901 5901
5891 5892 5892 5893 5893 5893 5893 5892 5892 5892 5893 5892 5891 5890 5889 5888 5886 5885 5884 5882 5882 5881 5881 5881 5880 5880 5880 5880 5881 5882 5884 5887 5889 5890 5892 5893 5894 5895 5896 5897 5898 5899 5900
5890 5891 5891 5892 5892 5892 5892 5892 5892 5892 5893 5892 5892 5891 5890 5888 5887 5885 5884 5882 5881 5881 5880 5880 5880 5879 5879 5880 5880 5882 5884 5886 5888 5889 5890 5892 5893 5894 5894 5895 5897 5898 5899
5889 5889 5890 5891 5891 5891 5892 5892 5891 5892 5892 5892 5891 5891 5890 5888 5887 5885 5883 5882 5881 5880 5879 5879 5879 5879 5878 5879 5880 5881 5883 5885 5887 5888 5889 5890 5892 5893 5894 5894 5895 5897 5898
5888 5889 5889 5890 5890 5890 5891 5891 5891 5891 5891 5891 5891 5891 5889 5888 5887 5885 5883 5882 5880 5879 5879 5878 5878 5878 5878 5878 5879 5880 5881 5883 5885 5887 5888 5889 5891 5892 5893 5894 5895 5896 5897
5887 5887 5888 5888 5889 5889 5890 5890 5890 5890 5889 5890 5890 5890 5889 5888 5886 5884 5883 5881 5880 5879 5878 5877 5877 5877 5877 5878 5878 5879 5880 5882 5884 5885 5887 5888 5890 5891 5892 5893 5894 5894 5895
5885 5885 5886 5886 5887 5888 5888 5889 5889 5888 5888 5888 5888 5888 5888 5887 5886 5884 5882 5880 5879 5878 5877 5876 5875 5875 5875 5876 5877 5878 5878 5880 5881 5883 5885 5886 5888 5889 5890 5891 5892 5892 5893
5884 5883 5883 5884 5884 5885 5886 5887 5887 5887 5886 5886 5886 5886 5886 5885 5884 5883 5881 5880 5878 5877 5876 5875 5874 5874 5873 5874 5875 5876 5877 5878 5879 5880 5882 5883 5885 5886 5887 5888 5889 5890 5891
5882 5881 5881 5881 5882 5882 5883 5884 5884 5884 5884 5884 5883 5883 5883 5883 5882 5882 5880 5879 5877 5876 5874 5874 5873 5873 5872 5872 5873 5874 5875 5875 5876 5877 5878 5879 5880 5882 5883 5884 5886 5887 5888
5879 5879 5879 5879 5879 5879 5880 5880 5880 5881 5881 5881 5881 5880 5880 5880 5880 5879 5878 5877 5875 5874 5872 5872 5871 5871 5870 5869 5870 5870 5872 5872 5873 5873 5874 5875 5876 5877 5878 5880 5882 5883 5884
5876 5876 5875 5876 5875 5876 5876 5876 5876 5877 5877 5877 5877 5877 5877 5877 5876 5876 5875 5874 5873 5871 5870 5869 5868 5868 5868 5867 5867 5867 5868 5868 5869 5870 5870 5870 5871 5872 5873 5875 5877 5879 5880
5873 5873 5872 5872 5872 5872 5872 5872 5872 5872 5873 5873 5874 5873 5873 5873 5873 5872 5871 5870 5870 5868 5867 5866 5865 5864 5864 5864 5864 5864 5864 5864 5864 5865 5865 5866 5866 5867 5868 5870 5872 5874 5875
5870 5869 5869 5868 5868 5868 5867 5867 5868 5868 5869 5869 5869 5869 5869 5869 5868 5868 5867 5866 5866 5865 5864 5863 5861 5860 5860 5860 5859 5859 5859 5859 5860 5860 5861 5861 5861 5862 5863 5865 5866 5868 5870
5866 5865 5864 5864 5863 5863 5863 5862 5863 5863 5864 5864 5863 5863 5864 5863 5863 5863 5862 5861 5861 5860 5859 5858 5857 5856 5856 5855 5855 5854 5854 5855 5855 5856 5856 5856 5857 5858 5859 5860 5861 5863 5865
5860 5860 5859 5858 5858 5858 5858 5857 5857 5857 5857 5857 5857 5857 5858 5858 5858 5858 5858 5857 5856 5855 5854 5853 5852 5851 5851 5851 5850 5850 5850 5850 5850 5851 5852 5852 5853 5854 5855 5856 5857 5859 5861
5853 5853 5852 5851 5851 5851 5850 5850 5849 5850 5850 5851 5851 5851 5851 5852 5852 5852 5853 5852 5851 5850 5849 5848 5847 5846 5845 5845 5845 5844 5844 5845 5845 5845 5847 5847 5848 5849 5851 5852 5853 5854 5856
5846 5846 5846 5844 5843 5842 5841 5840 5840 5841 5843 5844 5844 5845 5845 5845 5846 5846 5846 5846 5845 5844 5843 5842 5841 5840 5839 5838 5838 5838 5838 5838 5839 5840 5841 5842 5843 5844 5846 5847 5848 5849 5852
5838 5838 5838 5837 5835 5833 5832 5831 5831 5833 5835 5837 5838 5839 5839 5839 5840 5840 5840 5839 5839 5838 5837 5836 5835 5834 5833 5832 5831 5831 5831 5831 5832 5833 5834 5836 5837 5839 5841 5842 5844 5845 5847
5829 5829 5830 5830 5827 5825 5823 5824 5826 5827 5828 5830 5832 5833 5834 5834 5834 5833 5833 5832 5832 5831 5830 5829 5828 5827 5826 5825 5825 5825 5825 5824 5825 5826 5828 5830 5832 5834 5835 5837 5839 5841 5842
5818 5820 5821 5820 5818 5817 5817 5819 5820 5821 5822 5823 5825 5827 5828 5828 5827 5827 5826 5825 5825 5824 5823 5822 5821 5820 5819 5818 5818 5818 5818 5818 5819 5820 5822 5824 5826 5828 5830 5832 5834 5836 5837